User: anonymous   Login
Location: Marne
(34.0056°N, 117.9064°W)
Time: 19:58:24
(UTC+00:00)
Language:

Cosmos 724 - Orbit

View from above orbital plane
View from above orbital plane
View from above satellite
View from above satellite

Ground track
Ground track

The orbit data is extracted from the following two-line orbital elements,

1  7727U 75025A   20090.79904768 -.00000070 +00000-0 +12294-4 0  9993
2  7727 065.5901 191.3572 0045457 085.9812 274.6455 13.98922954298236
Epoch (UTC): 30 March 2020 19:10:37
Eccentricity: 0.0045457
inclination: 65.5901°
perigee height: 864 km
apogee height: 930 km
right ascension of ascending node: 191.3572°
argument of perigee: 85.9812°
revolutions per day: 13.98922954
mean anomaly at epoch: 274.6455°
orbit number at epoch: 29823

The dashed part of the orbit path shows where the satellite is in the earth's shadow,  

DLR